Location: Baix
(44.7118°N, 4.7648°E)
Time: 01:56:03
(UTC+00:00)

Meteor 1-28 Rocket - Pass Details

Date: 07 August 2020
Orbit: 503 x 524 km, 97.3° (Epoch: 19 September)

Event Time Altitude Azimuth Distance (km) Brightness Sun altitude
Exits shadow 02:36:29 27° 169° (S) 1,034 4.4 -17.8°
Maximum altitude 02:38:30 87° 255° (WSW) 529 3.1 -17.6°
Drops below altitude 10° 02:42:19 10° 347° (NNW) 1,770 6.3 -17.1°
Sets 02:44:27 0° 348° (NNW) 2,666 7.3 -16.8°
